Home > Weather > Royan > Past weeks

Flag for France Past Weather in Royan, Poitou-Charentes, France — Yesterday and Last 2 Weeks

Now
57 °F

Passing clouds.


Feels Like: 56 °F
Forecast: 58 / 71 °F
Wind: 7 mph from West

Location: Cognac Airport

Current Time: Jun 25, 2016 at 7:25:59 AM

Latest Report: Jun 25, 2016 at 7:00 AM


Visibility: N/A

Pressure: 30.12 "Hg

Humidity: 94%

Dew Point: 55 °F

Location of RoyanLocation

Past Weather in Royan — Graph

°F

Royan Temperature Yesterday

Maximum temperature yesterday: 79 °F (at 3:30 PM)
Minimum temperature yesterday: 64 °F (at 11:30 PM)
Average temperature yesterday: 71 °F

High & Low Weather Summary for the Past Weeks

 TemperatureHumidityPressure
High93 °F (Jun 22, 4:00 PM)100% (Jun 16, 6:30 AM)30.39 "Hg (Jun 16, 6:30 AM)
Low52 °F (Jun 17, 3:00 AM)33% (Jun 23, 2:30 PM)29.56 "Hg (Jun 15, 4:30 PM)
Average66 °F76%29.98 "Hg
* Reported Jun 10 6:00 AM — Jun 25 6:00 AM, Royan, Weather by CustomWeather, © 2016

Note: Actual official high and low records may vary slightly from our data, if they occured in-between our weather recording intervals... More about our weather records

Advertising

Royan Weather History for the Previous 24 Hours

Scroll right to see more
 ConditionsComfort  
Time TempWeatherWind HumidityBarometerVisibility
6:00 AM
Sat, Jun 25
57 °FPassing clouds.6 mph88%30.12 "HgN/A
5:30 AM57 °FPassing clouds.7 mph88%30.09 "HgN/A
5:00 AM57 °FPassing clouds.7 mph88%30.12 "HgN/A
4:30 AM57 °FClear.6 mph88%30.12 "Hg10 mi
4:00 AM59 °FClear.5 mph82%30.12 "Hg10 mi
3:30 AM59 °FClear.6 mph82%30.12 "Hg10 mi
3:00 AM59 °FClear.7 mph82%30.12 "Hg10 mi
2:30 AM61 °FClear.8 mph77%30.12 "Hg10 mi
2:00 AM61 °FClear.7 mph83%30.12 "Hg10 mi
1:30 AM63 °FPassing clouds.6 mph77%30.12 "HgN/A
1:00 AM63 °FClear.8 mph77%30.12 "Hg10 mi
12:30 AM63 °FClear.8 mph83%30.12 "Hg10 mi
12:00 AM64 °FClear.7 mph78%30.12 "Hg10 mi
11:30 PM
Fri, Jun 24
64 °FClear.7 mph73%30.12 "Hg10 mi
11:00 PM66 °FClear.8 mph68%30.12 "Hg10 mi
10:30 PM66 °FSunny.8 mph64%30.12 "Hg10 mi
10:00 PM68 °FOvercast.12 mph60%30.09 "HgN/A
9:30 PM70 °FOvercast.14 mph60%30.09 "HgN/A
9:00 PM72 °FPartly sunny.12 mph57%30.09 "HgN/A
8:30 PM75 °FScattered clouds.12 mph57%30.09 "HgN/A
8:00 PM75 °FOvercast.9 mph57%30.09 "HgN/A
7:30 PM75 °FSunny.12 mph57%30.09 "Hg10 mi
7:00 PM75 °FPassing clouds.12 mph57%30.09 "HgN/A
6:30 PM75 °FSunny.13 mph57%30.09 "Hg10 mi
6:00 PM75 °FPartly sunny.13 mph61%30.09 "HgN/A
5:30 PM77 °FPartly sunny.12 mph61%30.09 "HgN/A
5:00 PM79 °FOvercast.10 mph58%30.09 "HgN/A
4:30 PM77 °FBroken clouds.12 mph61%30.09 "HgN/A
4:00 PM79 °FMostly cloudy.9 mph54%30.09 "HgN/A
3:30 PM79 °FPartly sunny.9 mph58%30.09 "HgN/A
3:00 PM77 °FOvercast.6 mph57%30.12 "HgN/A
2:30 PM77 °FMostly cloudy.8 mph61%30.12 "HgN/A
2:00 PM77 °FPartly sunny.7 mph61%30.12 "HgN/A
1:30 PM77 °FMostly cloudy.7 mph57%30.12 "HgN/A
1:00 PM75 °FMostly cloudy.8 mph65%30.12 "HgN/A
12:30 PM77 °FOvercast.6 mph65%30.12 "HgN/A
12:00 PM75 °FPartly sunny.5 mph65%30.12 "HgN/A
11:30 AM73 °FBroken clouds.5 mph69%30.12 "HgN/A
11:00 AM73 °FPartly sunny.3 mph74%30.12 "HgN/A
10:30 AM70 °FMild.3 mph83%30.15 "HgN/A
10:00 AM70 °FMild.6 mph83%30.15 "HgN/A
9:30 AM68 °FMild.6 mph88%30.15 "HgN/A
9:00 AM68 °FMild.3 mph88%30.15 "HgN/A
8:30 AM66 °FMild.6 mph88%30.12 "HgN/A
8:00 AM66 °FMild.7 mph94%30.12 "HgN/A
7:30 AM66 °FMild.3 mph94%30.12 "HgN/A
7:00 AM66 °FMild.2 mph94%30.12 "HgN/A
Weather by CustomWeather, © 2016

See weather overviewHow to use our weather pages